Wind_Speed
2 2 2 1 4 5 4 3 1 4 5 15 22 17 11 10 4 7 8 5 7 6 6 5 4 6 6 7 5 7 7 7 7 6 6 8 9 9 10 9 10 8 9 7 8 8 13 13 13
1 1 2 2 5 5 4 5 5 4 20 25 23 19 16 8 16 15 10 6 5 5 7 6 7 6 6 6 5 4 4 4 4 1 4 6 7 9 10 12 14 17 14 13 10 12 7 11 12
7 4 2 4 4 4 1 4 4 14 8 4 6 12 7 7 9 9 9 9 6 5 4 6 7 8 9 8 7 6 4 2 2 1 1 2 7 8 10 13 17 19 19 19 13 11 10 11 13
8 3 4 5 2 1 3 7 4 4 14 13 15 8 8 8 9 10 10 6 4 7 8 10 10 11 10 9 8 6 5 3 2 0 1 4 5 6 8 11 12 16 14 13 12 12 11 9 8
7 4 4 4 4 1 5 21 17 7 4 7 5 5 9 12 10 13 12 10 6 10 11 9 8 8 7 7 7 5 3 3 3 1 2 4 5 7 9 10 9 10 7 7 9 10 12 13 13
3 3 4 1 3 4 5 21 20 12 10 16 14 8 5 13 13 13 12 10 9 8 9 5 4 5 5 5 6 4 2 1 2 2 3 3 1 2 3 4 4 6 8 8 8 10 12 16 22
6 4 5 4 3 4 3 9 7 10 9 3 13 5 10 17 15 13 11 10 4 6 6 4 3 4 5 7 6 5 1 2 4 4 5 3 3 3 4 4 4 5 6 5 4 5 8 7 9
3 5 4 2 3 2 6 3 9 9 5 13 9 6 7 20 16 14 11 8 6 6 5 2 2 3 6 6 8 9 6 2 3 3 4 4 5 5 5 4 6 5 6 7 5 5 6 6 8
5 5 3 1 3 3 9 4 6 4 6 4 6 7 8 23 20 18 16 14 14 10 8 7 6 6 7 4 5 8 5 1 1 1 3 4 5 4 5 5 5 5 3 5 6 7 8 10 12
9 4 2 3 5 1 4 6 1 2 11 10 13 13 19 17 20 15 19 19 20 15 9 6 6 9 10 8 6 6 7 7 6 4 3 3 4 4 3 4 5 5 6 6 8 9 11 12 13
4 3 3 2 4 4 4 6 3 4 4 20 23 21 17 13 14 14 16 19 21 14 9 5 7 7 7 8 7 6 8 9 8 6 6 6 6 6 8 9 8 9 9 10 10 11 11 11 14
5 2 3 1 2 2 2 5 5 2 5 8 14 14 18 17 15 14 14 24 19 12 10 9 10 6 6 6 8 9 9 9 9 8 9 9 9 10 11 11 12 11 11 12 11 12 12 11 10
2 1 2 4 6 6 4 4 5 9 7 12 18 20 19 16 14 15 16 18 13 11 11 14 12 8 8 8 9 11 12 13 13 12 12 13 13 12 12 12 13 13 13 13 13 14 15 15 16
4 5 6 10 10 9 5 5 2 12 8 16 19 23 21 20 17 17 18 19 20 19 17 15 12 11 10 9 10 12 14 17 18 16 16 16 16 16 14 14 15 16 15 15 14 14 15 15 14
5 4 7 13 6 4 4 3 5 8 8 20 24 21 21 20 19 22 23 23 21 19 15 13 11 12 13 13 11 13 16 19 20 20 18 17 17 18 18 18 17 17 16 15 15 14 14 14 15
3 4 3 7 5 4 2 7 7 10 11 25 25 23 21 20 22 24 23 23 18 16 14 11 12 15 18 16 14 16 17 17 19 19 19 18 17 17 19 20 19 17 16 16 15 12 11 11 13
6 3 4 7 8 3 1 7 10 18 8 25 26 25 23 23 22 22 23 22 18 15 11 12 13 16 19 19 19 21 20 21 22 23 22 21 19 18 20 20 18 15 14 14 14 13 12 13 13
5 5 5 1 6 5 5 7 9 17 3 19 26 22 18 20 25 23 20 20 17 12 10 11 14 17 18 19 22 22 22 23 23 25 26 26 24 20 21 21 20 17 16 16 15 13 13 14 15
1 3 3 4 4 8 5 9 14 4 14 18 20 24 19 13 7 7 17 19 17 12 9 12 14 15 17 19 21 22 24 23 25 26 28 26 25 26 25 22 21 21 20 17 15 15 15 14 14
6 3 4 6 6 3 9 10 7 9 7 21 24 23 21 19 16 14 13 10 7 5 7 9 12 14 15 18 20 22 24 25 26 25 25 27 29 29 28 27 28 24 22 20 19 18 18 15 13
3 2 4 6 7 3 6 7 6 4 10 14 14 17 15 12 13 10 6 2 4 5 7 8 9 12 14 17 19 22 26 30 32 32 31 31 30 34 33 32 31 29 27 25 24 23 22 18 17
5 4 4 6 4 2 4 3 3 3 3 3 8 11 11 10 8 7 4 4 4 4 6 8 9 13 15 17 21 24 27 31 33 35 34 32 35 32 32 31 31 29 27 25 24 23 21 19 20
7 7 8 5 4 3 9 3 5 3 4 0 9 10 12 10 7 6 5 3 4 8 9 9 11 13 14 18 22 28 31 34 34 35 36 36 36 35 31 30 33 31 29 26 22 18 17 20 15
6 6 4 3 3 3 4 1 4 5 4 5 6 9 10 8 5 4 4 8 9 7 8 11 11 9 12 18 22 28 31 35 38 39 40 39 41 40 38 32 36 34 31 31 30 28 25 21 23
8 6 4 5 5 3 6 5 2 1 5 6 6 2 2 7 9 7 7 7 6 7 8 7 9 15 19 26 28 33 34 36 35 35 37 39 43 40 38 31 32 33 31 32 29 25 23 25 27
4 4 4 1 1 5 7 3 3 7 18 20 10 6 12 6 5 1 0 2 3 2 6 12 16 22 24 26 33 38 39 33 32 34 34 35 35 29 30 30 29 26 20 24 27 26 29 32 23
4 4 1 3 2 3 4 6 6 10 5 14 11 23 10 7 9 13 12 10 6 10 14 17 21 27 32 39 41 33 31 33 34 32 29 27 29 31 29 30 25 30 34 30 31 23 17 18 24
2 1 4 4 2 3 5 5 6 8 14 18 17 13 15 16 12 9 9 3 6 12 19 27 33 37 38 33 28 29 31 31 28 23 14 18 26 26 21 19 16 23 26 16 16 17 22 27 30
5 4 4 0 4 3 2 5 5 12 11 9 11 12 10 8 8 11 11 13 20 26 29 33 36 32 33 29 29 30 29 29 27 20 19 18 19 16 22 22 19 17 12 13 18 24 27 30 33
1 4 5 3 5 3 4 10 13 6 19 8 9 11 13 8 10 13 19 24 29 31 33 33 34 31 31 32 35 29 24 22 16 13 12 13 15 18 13 13 12 13 16 19 23 28 30 33 35
Wind_Direction
231 245 281 5 54 64 330 349 198 75 50 65 87 96 107 87 47 113 112 109 137 118 96 108 141 137 144 132 130 126 117 124 137 156 159 180 177 190 187 195 187 182 279 299 264 246 208 203 227
68 114 56 85 86 61 314 290 78 89 133 102 93 93 67 74 94 109 129 155 151 140 106 128 141 135 140 136 132 111 115 135 142 178 196 183 186 190 193 202 209 255 285 295 285 267 245 209 229
44 64 73 99 119 136 177 303 320 72 116 144 106 53 55 102 93 108 134 159 160 124 138 136 134 123 120 112 107 111 132 178 223 223 120 217 221 220 223 228 250 271 284 284 286 281 286 274 245
32 28 53 69 93 104 181 360 307 89 74 74 103 66 70 119 114 116 131 140 151 138 138 132 129 121 113 108 103 103 116 120 115 142 237 226 217 228 237 251 263 276 283 285 287 289 275 264 256
26 43 49 49 289 254 47 49 77 70 67 81 79 84 102 117 113 121 112 95 120 121 119 108 103 98 95 94 92 98 112 117 120 136 205 227 235 234 240 248 258 276 281 285 291 283 269 258 230
63 73 48 163 271 346 81 83 77 90 107 104 85 95 127 145 139 129 127 108 102 138 119 120 100 108 89 78 71 71 77 186 195 211 237 239 262 245 227 240 267 284 297 302 306 296 282 251 254
131 92 177 82 266 47 22 87 88 84 105 79 131 114 148 160 140 150 144 132 135 137 128 125 102 29 24 15 23 24 332 239 212 208 210 216 241 272 303 313 302 283 287 292 303 298 286 247 227
141 93 59 21 193 68 348 88 68 64 52 120 131 166 172 163 154 160 151 156 176 157 169 184 183 1 354 346 338 346 345 218 219 204 192 220 245 271 283 288 287 287 276 286 285 282 275 264 236
120 68 39 311 79 259 34 81 84 100 129 133 148 146 154 160 161 153 156 176 172 189 212 248 256 281 304 295 292 320 335 59 354 185 203 235 256 248 276 276 280 283 247 240 261 277 274 261 265
78 95 161 213 169 237 115 79 100 78 85 107 130 134 157 165 178 180 183 183 189 197 211 224 268 287 266 246 242 293 312 310 310 272 244 245 226 239 267 271 283 279 270 272 271 272 272 268 259
66 126 218 6 67 56 46 42 35 48 30 154 157 157 165 178 183 184 191 204 214 217 238 275 293 299 255 245 237 253 275 293 306 259 254 250 245 262 275 272 270 258 253 261 270 272 277 277 272
77 124 149 220 82 75 52 352 345 311 165 169 181 171 169 171 177 185 197 207 205 224 251 290 309 299 232 245 251 266 271 284 294 278 257 251 256 259 261 264 268 266 261 262 257 256 266 274 270
81 277 202 225 218 222 203 233 232 272 217 168 170 178 182 186 192 200 180 186 211 240 270 286 296 303 248 234 240 251 258 269 274 267 263 253 255 258 266 264 267 271 272 272 275 270 266 271 280
311 306 292 254 242 243 206 252 287 271 202 179 173 179 187 191 189 193 211 229 242 255 268 282 295 301 271 248 244 255 265 272 274 270 268 266 268 269 266 264 264 267 265 269 275 274 277 279 273
297 310 324 279 255 245 216 348 217 358 245 204 195 201 205 211 202 217 226 232 239 247 261 274 284 292 299 278 268 264 268 266 268 273 269 269 271 267 266 264 264 266 265 266 272 277 284 292 299
343 48 328 304 160 283 93 267 270 322 210 202 208 211 212 215 217 225 233 238 236 242 259 266 271 291 308 300 294 291 283 275 274 275 277 278 275 266 262 256 255 258 264 271 274 277 281 289 295
9 318 331 355 67 7 201 268 266 316 230 222 220 218 215 226 227 232 238 236 237 234 243 248 277 297 306 308 301 296 289 286 285 284 286 285 280 276 269 260 257 259 264 262 266 275 289 302 302
309 338 332 279 323 357 283 276 293 324 192 230 237 221 220 234 239 240 235 223 213 216 225 264 290 301 303 301 295 296 289 281 270 273 282 288 283 280 279 267 263 259 265 266 265 273 290 304 314
60 357 329 295 282 358 288 282 276 176 126 114 113 128 128 117 124 185 213 204 201 214 250 294 310 317 310 304 303 296 296 292 281 266 277 271 275 278 276 270 265 260 259 263 261 269 283 291 300
40 10 316 290 304 314 301 300 321 140 161 138 130 125 116 106 100 106 133 162 192 245 284 311 318 317 315 317 308 298 295 292 289 285 274 273 267 270 265 264 270 260 249 250 250 256 270 271 285
322 170 279 253 319 332 340 347 1 359 122 137 132 129 125 121 119 116 124 163 277 296 303 292 303 307 302 305 300 295 291 288 286 287 282 273 266 264 264 262 264 258 251 245 249 254 263 259 271
316 242 281 285 38 316 19 276 291 304 5 93 138 131 113 112 122 130 159 199 226 265 277 281 302 319 310 308 301 293 281 280 289 288 286 279 271 268 257 260 257 250 241 241 241 240 244 259 269
258 307 279 301 163 93 342 54 275 58 262 255 43 96 122 139 153 165 187 211 271 288 288 301 310 307 312 315 313 310 302 297 297 294 285 278 269 263 258 251 247 240 239 235 223 228 254 260 253
284 311 354 35 101 54 274 148 326 345 322 70 93 158 169 165 189 242 270 270 277 293 304 303 298 304 306 303 305 303 298 298 294 291 289 283 273 260 253 241 235 234 231 235 239 244 257 244 256
17 29 1 17 12 222 329 5 256 93 78 139 191 199 221 233 247 227 247 252 244 269 286 288 300 304 308 297 300 303 297 295 289 286 284 285 268 253 254 234 218 220 219 231 236 244 255 266 272
332 88 127 246 346 283 323 229 195 147 93 79 116 110 322 310 225 331 298 185 191 316 310 312 310 299 299 299 303 304 303 299 296 296 295 287 262 233 227 223 216 224 232 249 244 256 267 273 291
326 32 154 121 15 47 285 289 317 239 20 23 20 354 7 36 55 57 47 15 345 329 323 316 315 313 311 308 308 306 300 301 304 303 296 279 230 212 208 231 229 253 260 274 288 291 289 296 291
88 228 29 11 8 286 299 291 234 324 334 343 343 47 78 75 62 30 21 44 336 325 323 321 315 316 319 318 312 310 308 307 306 302 274 239 215 205 207 224 255 298 319 303 306 305 299 293 290
352 24 14 49 135 213 272 256 240 317 325 318 355 71 49 38 50 32 13 350 335 325 328 325 323 324 324 322 319 316 304 302 298 281 254 230 215 226 257 296 315 314 300 305 299 293 289 289 290
113 120 102 97 320 264 251 272 279 291 326 353 70 28 11 20 2 354 340 336 334 332 329 326 327 323 329 328 327 312 294 280 262 248 243 249 257 267 301 325 319 315 307 296 291 292 294 293 291
Height
1517 1517 1518 1519 1531 1533 1540 1527 1515 1517 1519 1520 1516 1516 1522 1524 1529 1543 1540 1543 1540 1541 1541 1542 1544 1542 1542 1540 1541 1542 1542 1541 1543 1544 1542 1546 1545 1548 1548 1548 1547 1547 1548 1547 1548 1548 1544 1548 1552
1517 1518 1518 1518 1540 1550 1541 1522 1518 1515 1518 1520 1521 1522 1521 1532 1532 1534 1537 1542 1541 1544 1542 1543 1544 1543 1543 1543 1543 1542 1540 1544 1544 1544 1545 1544 1544 1547 1547 1546 1547 1547 1546 1545 1547 1548 1547 1548 1550
1517 1518 1518 1524 1539 1546 1537 1521 1519 1520 1518 1516 1520 1521 1524 1532 1534 1534 1539 1540 1542 1543 1545 1544 1545 1544 1544 1544 1545 1543 1543 1545 1545 1544 1543 1543 1544 1545 1544 1544 1545 1545 1544 1544 1544 1545 1544 1545 1547
1517 1519 1522 1532 1532 1525 1524 1518 1513 1516 1518 1518 1521 1527 1530 1534 1533 1535 1536 1540 1542 1544 1547 1546 1547 1545 1546 1545 1546 1545 1544 1544 1544 1543 1542 1543 1543 1544 1543 1544 1541 1542 1543 1542 1544 1542 1543 1544 1545
1519 1517 1534 1535 1533 1522 1520 1518 1517 1520 1524 1521 1524 1531 1534 1536 1536 1535 1536 1539 1543 1545 1547 1549 1548 1546 1546 1546 1546 1546 1545 1543 1544 1543 1542 1541 1541 1541 1541 1542 1541 1540 1543 1541 1542 1540 1541 1542 1542
1520 1522 1542 1542 1531 1522 1521 1519 1521 1523 1527 1527 1527 1529 1535 1538 1538 1539 1537 1541 1543 1547 1546 1549 1549 1547 1547 1547 1545 1545 1544 1543 1543 1543 1542 1541 1540 1540 1540 1540 1540 1540 1541 1541 1541 1541 1540 1540 1539
1519 1529 1541 1536 1536 1527 1521 1520 1521 1524 1526 1527 1525 1531 1537 1538 1540 1539 1540 1541 1544 1546 1545 1548 1548 1548 1548 1547 1545 1544 1544 1542 1541 1541 1540 1539 1539 1538 1537 1538 1539 1539 1539 1539 1540 1541 1539 1538 1539
1516 1522 1534 1534 1536 1530 1522 1519 1521 1523 1525 1527 1526 1530 1533 1537 1539 1539 1541 1543 1545 1545 1547 1549 1548 1547 1547 1546 1544 1545 1544 1543 1541 1540 1540 1539 1538 1538 1537 1537 1537 1538 1538 1538 1538 1539 1539 1541 1540
1516 1534 1545 1536 1533 1531 1522 1522 1523 1524 1525 1528 1528 1529 1529 1534 1537 1540 1542 1543 1544 1545 1546 1546 1546 1545 1544 1544 1543 1542 1542 1542 1541 1540 1539 1539 1539 1538 1537 1537 1536 1537 1537 1538 1537 1537 1537 1538 1538
1519 1540 1533 1529 1528 1526 1523 1523 1521 1525 1527 1530 1529 1531 1532 1534 1536 1539 1541 1541 1543 1544 1545 1545 1545 1543 1542 1542 1541 1541 1540 1540 1540 1539 1539 1539 1538 1538 1537 1536 1535 1535 1535 1535 1535 1535 1535 1535 1536
1524 1534 1529 1526 1525 1523 1521 1524 1524 1525 1529 1527 1528 1530 1532 1533 1535 1537 1539 1540 1541 1544 1545 1545 1544 1542 1541 1540 1540 1539 1538 1538 1539 1538 1537 1537 1537 1537 1536 1535 1534 1534 1533 1533 1534 1534 1533 1533 1532
1529 1527 1526 1525 1524 1521 1524 1523 1524 1525 1526 1526 1527 1527 1531 1533 1534 1534 1536 1538 1540 1541 1542 1543 1543 1542 1541 1541 1541 1540 1538 1538 1538 1537 1537 1536 1536 1536 1536 1535 1534 1533 1533 1532 1532 1531 1531 1530 1529
1529 1527 1526 1524 1524 1523 1522 1523 1524 1523 1524 1524 1524 1526 1527 1529 1532 1533 1534 1536 1538 1539 1539 1541 1541 1540 1539 1539 1539 1539 1538 1537 1536 1536 1535 1535 1535 1535 1535 1534 1533 1532 1531 1530 1529 1529 1528 1528 1527
1529 1527 1527 1524 1523 1522 1523 1523 1524 1519 1522 1524 1523 1523 1525 1526 1528 1531 1532 1533 1533 1534 1535 1537 1538 1538 1538 1538 1538 1538 1537 1536 1535 1535 1535 1534 1533 1532 1532 1531 1530 1530 1529 1528 1526 1525 1524 1524 1524
1528 1529 1525 1521 1522 1522 1522 1524 1523 1518 1518 1520 1520 1520 1522 1524 1527 1526 1527 1527 1530 1532 1533 1534 1534 1536 1536 1536 1536 1536 1536 1534 1533 1533 1532 1532 1531 1530 1529 1528 1528 1527 1526 1526 1524 1523 1522 1520 1519
1530 1532 1538 1521 1519 1523 1524 1533 1516 1516 1515 1515 1517 1516 1518 1521 1522 1524 1525 1526 1529 1530 1530 1531 1533 1534 1533 1533 1533 1532 1533 1532 1531 1530 1529 1529 1528 1526 1525 1524 1524 1524 1524 1523 1522 1521 1521 1520 1519
1541 1545 1538 1529 1524 1525 1524 1527 1513 1512 1513 1512 1512 1513 1516 1518 1519 1521 1523 1525 1527 1528 1529 1531 1531 1531 1531 1531 1530 1529 1528 1528 1527 1526 1526 1526 1525 1524 1523 1523 1523 1523 1522 1521 1520 1519 1518 1517 1516
1549 1545 1538 1534 1528 1524 1524 1521 1511 1509 1505 1505 1506 1509 1513 1515 1516 1518 1520 1523 1526 1527 1529 1529 1529 1529 1529 1528 1527 1526 1525 1525 1524 1523 1523 1522 1521 1521 1520 1519 1519 1518 1518 1518 1517 1516 1515 1514 1512
1538 1542 1542 1534 1527 1526 1524 1522 1510 1507 1507 1506 1506 1507 1512 1514 1515 1514 1514 1518 1522 1525 1527 1527 1527 1527 1526 1525 1524 1523 1522 1521 1520 1519 1518 1518 1518 1517 1516 1515 1515 1514 1513 1512 1512 1512 1512 1511 1509
1539 1542 1544 1535 1527 1528 1523 1518 1508 1505 1509 1507 1507 1510 1514 1515 1516 1516 1519 1523 1524 1524 1524 1524 1524 1524 1524 1523 1521 1519 1518 1516 1515 1514 1513 1511 1511 1512 1512 1511 1510 1509 1509 1508 1508 1507 1507 1507 1505
1542 1541 1542 1542 1533 1524 1523 1522 1516 1511 1509 1510 1511 1512 1514 1515 1516 1518 1520 1522 1523 1523 1523 1522 1522 1521 1520 1519 1517 1515 1513 1510 1508 1507 1505 1504 1504 1503 1503 1503 1503 1502 1502 1502 1503 1502 1501 1500 1499
1547 1535 1534 1536 1540 1548 1530 1550 1522 1516 1516 1514 1513 1512 1514 1517 1520 1520 1521 1521 1522 1522 1522 1520 1518 1516 1515 1514 1512 1509 1507 1504 1501 1499 1497 1497 1496 1494 1494 1495 1495 1495 1495 1496 1495 1494 1494 1494 1493
1543 1533 1533 1530 1539 1540 1541 1546 1528 1518 1520 1517 1520 1518 1519 1520 1520 1520 1521 1520 1520 1519 1518 1516 1515 1513 1512 1511 1508 1505 1501 1498 1495 1493 1491 1489 1488 1486 1485 1486 1486 1487 1487 1488 1488 1488 1487 1486 1486
1536 1533 1532 1533 1539 1563 1543 1546 1541 1531 1524 1524 1522 1521 1519 1521 1521 1521 1519 1518 1517 1515 1515 1513 1511 1511 1510 1509 1506 1501 1497 1492 1488 1485 1482 1481 1479 1478 1478 1477 1478 1478 1477 1478 1478 1478 1478 1480 1479
1541 1545 1567 1562 1571 1568 1541 1545 1542 1529 1522 1520 1520 1522 1522 1520 1518 1517 1517 1515 1514 1513 1512 1510 1510 1510 1508 1505 1501 1496 1490 1486 1481 1478 1475 1474 1471 1469 1470 1470 1470 1468 1468 1467 1468 1469 1471 1472 1472
1547 1551 1579 1578 1581 1571 1545 1549 1537 1523 1521 1523 1524 1523 1521 1518 1517 1517 1515 1514 1513 1511 1510 1510 1508 1505 1501 1496 1492 1488 1482 1478 1475 1472 1468 1464 1463 1462 1462 1462 1463 1462 1461 1461 1462 1461 1464 1464 1465
1548 1559 1550 1564 1574 1582 1561 1541 1523 1519 1518 1523 1522 1521 1517 1517 1516 1516 1515 1515 1513 1512 1510 1507 1503 1499 1493 1487 1481 1476 1472 1470 1467 1462 1459 1456 1455 1453 1454 1455 1456 1455 1457 1459 1459 1460 1460 1460 1460
1546 1548 1565 1577 1589 1575 1563 1555 1545 1528 1524 1520 1520 1519 1517 1517 1515 1514 1513 1512 1511 1508 1506 1502 1498 1491 1484 1479 1475 1471 1467 1464 1462 1457 1454 1453 1450 1450 1451 1450 1452 1453 1453 1455 1455 1455 1455 1453 1452
1556 1562 1560 1561 1574 1582 1575 1560 1532 1528 1529 1529 1523 1520 1519 1517 1515 1514 1513 1511 1508 1505 1500 1495 1489 1483 1478 1473 1469 1464 1460 1456 1454 1453 1451 1450 1450 1449 1450 1449 1451 1451 1451 1451 1450 1450 1449 1447 1445
1551 1558 1564 1586 1575 1581 1575 1550 1525 1529 1527 1526 1524 1524 1523 1521 1517 1512 1510 1506 1503 1498 1492 1487 1482 1477 1473 1467 1462 1458 1455 1452 1450 1449 1448 1449 1449 1448 1448 1447 1447 1447 1446 1446 1445 1443 1441 1439 1437